This demonstration page uses our WeatherBlox Daily Observations layout. Learn more.

Left ArrowRight Arrow

36.19886, -115.1175

Hourly Observations for February 24, 2017

Temp ( °F °C ) Dew Point ( °F °C ) Humidity (%) Winds ( mph kmh ) Pressure ( in mb ) Visibility ( mi km ) Precip ( " mm )
12:53 am 00:53 Clear 41 5 13 -10.6 32 32 NNW 10 17 30.09 1019 10 16 0.00 0.00
1:53 am 01:53 Clear 41 5 14 -10 33 33 NNW 9 15 30.09 1019 10 16 0.00 0.00
2:53 am 02:53 Clear 41 5 16 -8.9 36 36 NNW 13 20 30.10 1019 10 16 0.00 0.00
3:53 am 03:53 Clear 39 3.9 15 -9.4 38 38 N 10 17 30.12 1020 10 16 0.00 0.00
4:53 am 04:53 Clear 39 3.9 16 -8.9 39 39 NNW 13 20 30.13 1020 10 16 0.00 0.00
5:53 am 05:53 Clear 39 3.9 15 -9.4 38 38 N 9 15 30.14 1021 10 16 0.00 0.00
6:53 am 06:53 Sunny 38 3.3 15 -9.4 39 39 NNE 7 11 30.19 1022 10 16 0.00 0.00
7:53 am 07:53 Sunny 42 5.6 13 -10.6 30 30 N 13 20 30.20 1023 10 16 0.00 0.00
8:53 am 08:53 Sunny 45 7.2 13 -10.6 27 27 NE 14 22 30.22 1024 10 16 0.00 0.00
9:53 am 09:53 Sunny 48 8.9 10 -12.2 21 21 NNE 13 20 30.23 1024 10 16 0.00 0.00
10:53 am 10:53 Sunny 49 9.4 14 -10 25 25 E 10 17 30.23 1024 10 16 0.00 0.00
11:53 am 11:53 Sunny 48 8.9 12 -11.1 23 23 E 7 11 30.22 1023 10 16 0.00 0.00
12:53 pm 12:53 Sunny 51 10.6 10 -12.2 19 19 VRB 5 7 30.19 1022 10 16 0.00 0.00
1:53 pm 13:53 Sunny 51 10.6 9 -12.8 18 18 undefined N/A 30.18 1022 10 16 0.00 0.00
2:53 pm 14:53 Sunny 51 10.6 10 -12.2 19 19 SSE 6 9 30.17 1022 10 16 0.00 0.00
3:53 pm 15:53 Sunny 53 11.7 11 -11.7 18 18 NE 3 6 30.15 1021 10 16 0.00 0.00
4:53 pm 16:53 Sunny 52 11.1 10 -12.2 18 18 NE 5 7 30.16 1021 10 16 0.00 0.00
5:53 pm 17:53 Clear 50 10 12 -11.1 22 22 ENE 6 9 30.17 1022 10 16 0.00 0.00
6:53 pm 18:53 Clear 48 8.9 16 -8.9 28 28 SE 5 7 30.18 1022 10 16 0.00 0.00
7:53 pm 19:53 Clear 46 7.8 18 -7.8 32 32 E 7 11 30.19 1023 10 16 0.00 0.00
8:53 pm 20:53 Clear 44 6.7 16 -8.9 32 32 E 5 7 30.20 1023 10 16 0.00 0.00
9:53 pm 21:53 Clear 45 7.2 15 -9.4 30 30 Calm 30.19 1023 10 16 0.00 0.00
10:53 pm 22:53 Clear 43 6.1 18 -7.8 37 37 WNW 3 6 30.19 1022 10 16 0.00 0.00
11:53 pm 23:53 Clear 41 5 21 -6.1 45 45 WNW 5 7 30.19 1022 10 16 0.00 0.00

Powered by AerisWeather